Regional Weather Roundup
Issued by NWS

Home | Current Version | Previous Version | Graphics & Text | Print | Product List | Glossary On
Versions: 1 2 3 4 5 6 7 8 9 10 11 12 13 14 15 16 17 18 19 20 21 22 23 24 25 26 27 28 29 30 31 32 33 34 35 36 37 38 39 40 41 42 43 44 45 46 47 48 49 50
007
ASUS43 KFSD 211610
RWRSD

WEATHER ROUNDUP FOR SOUTH DAKOTA
NATIONAL WEATHER SERVICE SIOUX FALLS SD
1000 AM CST SUN JAN 21 2018

NOTE: "FAIR" INDICATES FEW OR NO CLOUDS BELOW 12,000 FEET WITH NO
SIGNIFICANT WEATHER AND/OR OBSTRUCTIONS TO VISIBILITY.


SDZ001>005-009-010-012>017-211700-
NORTHWEST AND NORTH CENTRAL SOUTH DAKOTA

CITY           SKY/WX    TMP DP  RH WIND       PRES   REMARKS
BUFFALO          N/A     24  18  77 W8        29.95R WCI  15
FAITH            N/A     28  23  81 NW7       30.02R WCI  21
MOBRIDGE       PTSUNNY   28  22  78 NW7       30.01R WCI  21
$$

SDZ012>016-024>037-041>051-057-063-072>074-211700-
SOUTHWEST AND SOUTH CENTRAL SOUTH DAKOTA

CITY           SKY/WX    TMP DP  RH WIND       PRES   REMARKS
RAPID CTY ARPT CLOUDY    30  24  78 N10       30.00R WCI  21
PIERRE         CLOUDY    31  28  89 NW9       30.02R WCI  23
CUSTER         CLOUDY    22  15  75 NE14      29.91R WCI   9
ELLSWORTH AFB  CLOUDY    31  25  78 N9        30.00R WCI  23
PHILIP         CLOUDY    32  28  85 NW5       30.03R WCI  27
PINE RIDGE     LGT SNOW  30  27  88 N13       29.98R VSB 1   WCI  20
SPEARFISH        N/A     27  23  86 SW5       30.00S WCI  21
WINNER         LGT SNOW  34  32  92 N14       29.99R FOG     WCI  25
$$

SDZ004>011-016>023-039-040-211700-
NORTHEAST SOUTH DAKOTA

CITY           SKY/WX    TMP DP  RH WIND       PRES   REMARKS
ABERDEEN       CLOUDY    26  22  84 N8        30.03R WCI  18
WATERTOWN      CLOUDY    32  29  88 CALM      29.97R
BROOKINGS      CLOUDY    35  32  88 NE9       29.96R WCI  28
SISSETON         N/A     28  24  85 NW9       30.01R WCI  19
$$

SDZ017-020-022-023-036>040-048>070-211700-
SOUTHEAST SOUTH DAKOTA

CITY           SKY/WX    TMP DP  RH WIND       PRES   REMARKS
SIOUX FALLS    CLOUDY    37  31  78 NE10      29.94R
HURON          LGT SNOW  32  32 100 NW6       30.01R FOG     WCI  26
CHAMBERLAIN    LGT SNOW  34  34 100 NW9       30.00R WCI  26
MITCHELL       CLOUDY    35  33  92 N12       29.99R WCI  27
YANKTON        MOSUNNY   36  30  79 NE7       29.93R
$$

ABBREVIATIONS USED IN REMARKS
   TC - TEMPERATURE IN CELSIUS
  WCI - WIND CHILL INDEX
   HX - HEAT INDEX
  VSB - VISIBILITY





USA.gov is the U.S. government's official web portal to all federal, state and local government web resources and services.